Regional Weather Roundup
Issued by NWS

Home | Current Version | Previous Version | Text Only | Print | Product List | Glossary Off
Versions: 1 2 3 4 5 6 7 8 9 10 11 12 13 14 15 16 17 18 19 20 21 22 23 24 25 26 27 28 29 30 31 32 33 34 35 36 37 38 39 40 41 42 43 44 45 46 47 48 49 50

559
ASUS45 KPSR 271810
RWRAZ

ARIZONA HOURLY REGIONAL WEATHER ROUNDUP
NATIONAL WEATHER SERVICE PHOENIX AZ
1100 AM MST WED JUL 27 2016

NOTE: FAIR INDICATES FEW OR NO CLOUDS BELOW 12,000 FEET WITH NO
SIGNIFICANT WEATHER AND/OR OBSTRUCTIONS TO VISIBILITY.

AZZ001>003-036-271900-
NORTHWEST ARIZONA

CITY           SKY/WX    TMP DP  RH WIND       PRES   REMARKS
BULLHEAD CITY  SUNNY    108  55  18 SW7       29.81F HX 106
KINGMAN        SUNNY    102  49  16 SW13      30.05S
6HR MIN TEMP:  78; 6HR MAX TEMP: 102;

$$

AZZ004>008-015-016-018-271900-
NORTH CENTRAL ARIZONA

CITY           SKY/WX    TMP DP  RH WIND       PRES   REMARKS
GRAND CANYON   SUNNY     91  37  15 VRB5      30.33S
6HR MIN TEMP:  51; 6HR MAX TEMP:  91;

WILLIAMS       SUNNY     84  48  28 NW5G12    30.42S HAZE
PRESCOTT       MOSUNNY   92  50  23 NE7       30.20F
6HR MIN TEMP:  67; 6HR MAX TEMP:  92;

FLAGSTAFF      SUNNY     84  43  23 VRB3      30.35F
6HR MIN TEMP:  51; 6HR MAX TEMP:  85;

PAYSON         SUNNY     90  55  31 VRB6G15   30.23F
PAGE           SUNNY     95  42  16 N6        30.12F
6HR MIN TEMP:  75; 6HR MAX TEMP:  95;

$$

AZZ009>014-017-271900-
NORTHEAST ARIZONA

CITY           SKY/WX    TMP DP  RH WIND       PRES   REMARKS
WINSLOW        SUNNY     94  47  20 NE6       30.19S
6HR MIN TEMP:  62; 6HR MAX TEMP:  94;

SAINT JOHNS    SUNNY     89  49  25 NW7       30.23F
6HR MIN TEMP:  64; 6HR MAX TEMP:  90;

WINDOW ROCK    MOSUNNY   86  45  23 VRB3      30.32F
6HR MIN TEMP:  55; 6HR MAX TEMP:  88;

SHOW LOW       SUNNY     84  45  24 N7        30.31F
$$

AZZ023-271900-
GREATER PHOENIX AREA

CITY           SKY/WX    TMP DP  RH WIND       PRES   REMARKS
PHOENIX        MOSUNNY  103  61  25 S7        29.88F HX 104
6HR MIN TEMP:  91; 6HR MAX TEMP: 103;

BUCKEYE        SUNNY    100  55  22 SE7       29.90F
GLENDALE       MOSUNNY  102  57  22 SW6       29.90F HX 101
LUKE AFB       SUNNY    101  59  24 SW7       29.87F HX 101
6HR MIN TEMP:  90; 6HR MAX TEMP: 101;

DEER VALLEY    SUNNY    100  59  25 S10       29.91F HX 100
6HR MIN TEMP:  88; 6HR MAX TEMP: 101;

SCOTTSDALE     SUNNY    100  60  26 MISG      29.93F HX 100
6HR MIN TEMP:  90; 6HR MAX TEMP: 100;

MESA-GATEWAY   MOSUNNY   99  63  30 CALM      29.92F HX 100
CHANDLER       MOSUNNY  100  61  27 S7        29.90F HX 101
$$

AZZ027-028-271900-
SOUTHWEST MARICOPA COUNTY AND PINAL COUNTY

CITY           SKY/WX    TMP DP  RH WIND       PRES   REMARKS
CASA GRANDE    SUNNY    100  61  27 NW6       29.94S HX 101
6HR MIN TEMP:  84; 6HR MAX TEMP: 100;

GILA BEND      SUNNY    103  57  21 VRB1      29.87S HX 103
6HR MIN TEMP:  87; 6HR MAX TEMP: 104;

$$

AZZ503-504-507>509-271900-
SOUTHEAST ARIZONA

CITY           SKY/WX    TMP DP  RH WIND       PRES   REMARKS
TUCSON         SUNNY     96  61  31 CALM      30.03F
6HR MIN TEMP:  80; 6HR MAX TEMP:  96;

DAVIS-MONTHAN  MOSUNNY   93  60  32 VRB5      30.01F
6HR MIN TEMP:  78; 6HR MAX TEMP:  93; 6HR PCP: TRACE;

RYAN FIELD     SUNNY     97  64  34 W7        30.01F
NOGALES        PTSUNNY   88  63  43 W7        30.12F
6HR MIN TEMP:  70; 6HR MAX TEMP:  89;

SIERRA VISTA   CLOUDY    84  56  39 W3        30.18F
6HR MIN TEMP:  70; 6HR MAX TEMP:  84;

DOUGLAS        PTSUNNY  N/A N/A N/A MISG      30.13F
SAFFORD        SUNNY     94  58  29 CALM      30.02F
6HR MIN TEMP:  81; 6HR MAX TEMP:  94;

$$

AZZ020-021-025-026-031-271900-
SOUTHWEST ARIZONA

CITY           SKY/WX    TMP DP  RH WIND       PRES   REMARKS
YUMA           MOSUNNY  104  62  25 S15       29.82S HX 106
6HR MIN TEMP:  87; 6HR MAX TEMP: 104;

$$

CAZ031-033-041-043-047-048-061-271900-
SOUTHERN CALIFORNIA

CITY           SKY/WX    TMP DP  RH WIND       PRES   REMARKS
DOWNTOWN L.A.  SUNNY     85  62  46 VRB3      29.92R
6HR MIN TEMP:  68; 6HR MAX TEMP:  85;

L.A. AIRPORT   MOSUNNY   78  66  66 W9        29.94R
6HR MIN TEMP:  68; 6HR MAX TEMP:  78;

SAN DIEGO      MOSUNNY   78  67  68 W9        29.94R
6HR MIN TEMP:  68; 6HR MAX TEMP:  79;

BURBANK        SUNNY     89  51  27 S7        29.93S
6HR MIN TEMP:  72; 6HR MAX TEMP:  89;

ONTARIO        MOSUNNY   91  39  16 W6        29.94S
6HR MIN TEMP:  74; 6HR MAX TEMP:  92;

RIVERSIDE      MOSUNNY   93  40  15 VRB7      29.93S
6HR MIN TEMP:  74; 6HR MAX TEMP:  93;

PALM SPRINGS   SUNNY    104  54  19 SE5       29.83F HX 102
6HR MIN TEMP:  89; 6HR MAX TEMP: 105;

EL CENTRO NAS  MOSUNNY  104  61  24 CALM      29.80S HX 105
6HR MIN TEMP:  84; 6HR MAX TEMP: 105;

IMPERIAL       SUNNY    105  64  26 W5        29.78F HX 108
6HR MIN TEMP:  87; 6HR MAX TEMP: 105;

BLYTHE         SUNNY    106  58  20 S10       29.81F HX 106
6HR MIN TEMP:  88; 6HR MAX TEMP: 106;

NEEDLES        MOSUNNY  110  54  15 CALM      29.83S HX 108
6HR MIN TEMP:  95; 6HR MAX TEMP: 110;

$$

NVZ020-UTZ003-271900-
SOUTHERN NEVADA-UTAH

CITY           SKY/WX    TMP DP  RH WIND       PRES   REMARKS
LAS VEGAS      MOSUNNY  106  41  11 VRB3      29.89S HX 100
6HR MIN TEMP:  90; 6HR MAX TEMP: 106;

SALT LAKE CITY SUNNY     94  31  10 CALM      30.13S
6HR MIN TEMP:  70; 6HR MAX TEMP:  94;

$$

NMZ009-TXZ055-271900-
NEW MEXICO-WEST TEXAS

CITY           SKY/WX    TMP DP  RH WIND       PRES   REMARKS
ALBUQUERQUE    MOSUNNY   84  56  38 NW3       30.23F
6HR MIN TEMP:  69; 6HR MAX TEMP:  84;

EL PASO        PTSUNNY   83  62  49 N9        30.13F
6HR MIN TEMP:  73; 6HR MAX TEMP:  83; 6HR PCP: TRACE;

$$


........................KEY........................
SKY/WX - SKY CONDITION/WEATHER
TMP    - TEMPERATURE IN FAHRENHEIT
DP     - DEW POINT IN FAHRENHEIT
RH     - RELATIVE HUMIDITY IN PERCENT
WIND   - DIRECTION AND SPEED IN MILES PER HOUR (MPH)
VRB    - VARIABLE WIND DIRECTION
PRES   - MEAN SEA LEVEL PRESSURE IN INCHES OF MERCURY
         F - FALLING PRESSURE   R - RISING PRESSURE
         S - STEADY PRESSURE
VSB    - VISIBILITY IN MILES
HX     - HEAT INDEX IN FAHRENHEIT
WCI    - WIND CHILL INDEX IN FAHRENHEIT
TC     - TEMPERATURE IN CELSIUS WHICH IS ALSO KNOWN AS
         TEMPERATURE IN CENTIGRADE
AFB    - AIR FORCE BASE
         LUKE AFB IS LUKE AIR FORCE BASE
         DAVIS-MONTHAN IS DAVIS-MONTHAN AIR FORCE BASE
NAS    - NAVAL AIR STATION
         EL CENTRO NAS IS EL CENTRO NAVAL AIR STATION
N/A    - NOT AVAILABLE





USA.gov is the U.S. government's official web portal to all federal, state and local government web resources and services.